EW4849 Weather Reports


time (UTC)temp
F
wind
direction
speed
knots
gust
knots
rain 1hr
in
rain 24hr
in
rain mn
in
humidity
%
barometer
mb
20260902071539 60 195 10.4 14.8 0.00 0.00 0.00 62 999.9
20260902070030 60 217 10.4 15.6 0.00 0.00 0.00 61 999.7
20260902064527 61 213 9.6 14.8 0.00 0.00 0.00 59 999.6
20260902063024 61 202 10.4 17.4 0.00 0.00 0.00 58 999.5
20260902061520 61 227 13.0 16.5 0.00 0.00 0.00 58 999.3
20260902060019 62 224 10.4 18.2 0.00 0.00 0.00 57 999.1
20260902054522 62 229 10.4 15.6 0.00 0.00 0.00 56 999.0
20260902053014 62 213 10.4 16.5 0.00 0.00 0.00 55 999.1
20260902051606 63 206 11.3 20.0 0.00 0.00 0.00 54 998.9
20260902050057 63 204 14.8 20.9 0.00 0.00 0.00 52 998.7
20260902044554 64 175 12.2 17.4 0.00 0.00 0.00 51 998.7
20260902043054 65 205 13.9 17.4 0.00 0.00 0.00 49 998.6
20260902041602 66 199 9.6 14.8 0.00 0.00 0.00 46 998.3
20260902040044 67 210 9.6 16.5 0.00 0.00 0.00 44 997.8
20260902034544 67 212 10.4 14.8 0.00 0.00 0.00 43 997.7
20260902033048 68 232 9.6 13.9 0.00 0.00 0.00 41 997.6
20260902031528 69 214 9.6 13.0 0.00 0.00 0.00 40 997.2
20260902030027 70 211 8.7 13.0 0.00 0.00 0.00 40 997.0
20260902024526 70 212 4.3 7.8 0.00 0.00 0.00 38 996.9
20260902023038 72 219 5.2 7.8 0.00 0.00 0.00 37 996.8
20260902021538 73 207 4.3 7.0 0.00 0.00 0.00 37 996.5
20260902020025 74 215 3.5 6.1 0.00 0.00 0.00 38 996.4
20260902014524 75 237 0.9 2.6 0.00 0.00 0.00 36 996.4
20260902013023 77 232 0.0 0.9 0.00 0.00 0.00 36 996.4
20260902011511 77 226 1.7 4.3 0.00 0.00 0.00 35 996.5
20260902010005 78 258 0.9 3.5 0.00 0.00 0.00 34 996.4
20260902004550 78 245 4.3 7.0 0.00 0.00 0.00 34 996.4
20260902003055 78 234 5.2 7.8 0.00 0.00 0.00 33 996.2
20260902001549 78 246 5.2 7.8 0.00 0.00 0.00 33 996.2
20260902000111 80 203 3.5 7.8 0.00 0.00 0.00 32 996.2
20260901234546 80 247 4.3 8.7 0.00 0.00 0.00 32 996.4
20260901233044 80 236 3.5 7.0 0.00 0.00 0.00 31 996.4
20260901231550 79 243 6.1 10.4 0.00 0.00 0.00 32 996.5
20260901230046 79 269 4.3 7.8 0.00 0.00 0.00 34 996.6
20260901224542 78 268 5.2 10.4 0.00 0.00 0.00 35 996.8
20260901223039 78 207 7.0 11.3 0.00 0.00 0.00 36 997.0
20260901221537 77 248 6.1 11.3 0.00 0.00 0.00 36 997.2
20260901220055 76 219 7.8 10.4 0.00 0.00 0.00 39 997.1
20260901214533 76 255 7.0 11.3 0.00 0.00 0.00 40 997.1
20260901213100 76 250 6.1 10.4 0.00 0.00 0.00 40 997.2
20260901211555 76 245 5.2 10.4 0.00 0.00 0.00 40 997.3
20260901210058 76 243 7.0 11.3 0.00 0.00 0.00 42 997.7
20260901204545 75 265 7.8 11.3 0.00 0.00 0.00 43 997.8
20260901203058 74 248 8.7 13.9 0.00 0.00 0.00 42 997.7
20260901201525 75 268 8.7 13.0 0.00 0.00 0.00 43 997.8
20260901200030 72 232 8.7 13.9 0.00 0.00 0.00 46 998.0
20260901194501 70 246 9.6 13.9 0.00 0.00 0.00 49 998.0
20260901193112 70 259 9.6 14.8 0.00 0.00 0.00 51 998.2
20260901191543 68 236 7.8 11.3 0.00 0.00 0.00 52 998.7
20260901190043 67 212 0.9 5.2 0.00 0.00 0.00 53 998.9
20260901184540 67 225 4.3 7.0 0.00 0.00 0.00 53 999.0
20260901183046 68 202 5.2 8.7 0.00 0.00 0.00 51 998.9
20260901181537 68 214 5.2 9.6 0.00 0.00 0.00 50 999.1
20260901180036 67 244 6.1 8.7 0.00 0.00 0.00 50 999.0
20260901174534 67 248 3.5 6.1 0.00 0.00 0.00 50 998.4
20260901173047 67 256 5.2 9.6 0.00 0.00 0.00 50 998.6
20260901171511 67 250 7.8 12.2 0.00 0.00 0.00 50 998.9
20260901170011 66 218 7.8 10.4 0.00 0.00 0.00 50 999.4
20260901164632 66 217 7.8 13.0 0.00 0.00 0.00 48 999.1
20260901163057 67 214 6.1 9.6 0.00 0.00 0.00 47 998.7
20260901161556 67 243 5.2 8.7 0.00 0.00 0.00 46 998.5
20260901160059 68 235 7.0 10.4 0.00 0.00 0.00 45 998.6
20260901154554 68 252 6.1 9.6 0.00 0.00 0.00 43 998.7
20260901153053 66 159 5.2 7.8 0.00 0.00 0.00 43 998.8
20260901151553 63 170 3.5 5.2 0.00 0.00 0.00 45 998.6
20260901150056 61 155 4.3 6.1 0.00 0.00 0.00 46 998.6
20260901144551 61 124 0.9 3.5 0.00 0.00 0.00 45 998.4
20260901143042 61 127 3.5 5.2 0.00 0.00 0.00 45 998.4
20260901141532 60 136 0.0 1.7 0.00 0.00 0.00 46 998.3
20260901140016 60 105 0.9 2.6 0.00 0.00 0.00 46 998.1
20260901134624 60 106 0.9 2.6 0.00 0.00 0.00 46 997.9
20260901133058 59 119 1.7 2.6 0.00 0.00 0.00 45 997.8
20260901131556 60 158 0.9 2.6 0.00 0.00 0.00 45 997.6
20260901130043 61 124 1.7 3.5 0.00 0.00 0.00 44 997.5
20260901124539 61 127 1.7 4.3 0.00 0.00 0.00 44 997.5
20260901123022 61 110 0.9 3.5 0.00 0.00 0.00 44 997.7
20260901121519 61 131 0.9 3.5 0.00 0.00 0.00 45 997.6
20260901120006 61 87 1.7 3.5 0.00 0.00 0.00 46 997.5
20260901114507 61 53 0.0 1.7 0.00 0.00 0.00 47 997.5
20260901113006 61 131 0.0 0.9 0.00 0.00 0.00 48 997.5
20260901111505 62 117 0.9 1.7 0.00 0.00 0.00 48 997.6
20260901110003 61 97 0.0 2.6 0.00 0.00 0.00 48 997.8
20260901104503 60 101 1.7 3.5 0.00 0.00 0.00 51 997.9
20260901103059 61 126 0.0 2.6 0.00 0.00 0.00 48 997.7
20260901101607 61 123 0.0 1.7 0.00 0.00 0.00 47 997.9
20260901100041 62 115 0.0 1.7 0.00 0.00 0.00 47 998.0
20260901094541 62 93 0.0 1.7 0.00 0.00 0.00 47 998.1
20260901093021 62 75 0.0 0.9 0.00 0.00 0.00 48 998.2
20260901091520 62 75 0.0 1.7 0.00 0.00 0.00 47 998.3
20260901090011 62 84 0.9 1.7 0.00 0.00 0.00 47 998.2
20260901084507 62 82 0.9 2.6 0.00 0.00 0.00 48 998.2
20260901083007 63 91 0.0 0.9 0.00 0.00 0.00 47 998.3
20260901081505 62 91 0.9 3.5 0.00 0.00 0.00 47 998.4
20260901080005 62 98 0.0 1.7 0.00 0.00 0.00 47 998.4
20260901074506 62 94 0.0 0.0 0.00 0.00 0.00 46 998.4